This is the latest recevied weather packets stored in our database for station/object K2CCS. If no packets are shown the sender has not sent any weather packets the latest 10 day(s).
| Time | Temp. | Humidity | Pressure | Rain* | Wind** | Luminosity | Snow |
|---|---|---|---|---|---|---|---|
| 1778188407 | 13.33° C | 39% | 1011.9 hPa | 0 mm | - | 246 W/m² | - |
| 1778188104 | 13.33° C | 39% | 1012 hPa | 0 mm | - | 56 W/m² | - |
| 1778187801 | 13.89° C | 38% | 1012.1 hPa | 0 mm | - | 74 W/m² | - |
| 1778187498 | 13.33° C | 38% | 1011.9 hPa | 0 mm | - | 390 W/m² | - |
| 1778187195 | 13.33° C | 39% | 1012 hPa | 0 mm | - | 85 W/m² | - |
| 1778186890 | 13.33° C | 39% | 1011.9 hPa | 0 mm | - | 98 W/m² | - |
| 1778186588 | 13.89° C | 39% | 1012 hPa | 0 mm | - | 78 W/m² | - |
| 1778186286 | 14.44° C | 39% | 1012.1 hPa | 0 mm | - | 66 W/m² | - |
| 1778185984 | 13.33° C | 40% | 1012 hPa | 0 mm | - | 526 W/m² | - |
| 1778185680 | 13.89° C | 40% | 1011.8 hPa | 0 mm | - | 87 W/m² | - |
| 1778185376 | 13.33° C | 40% | 1012.1 hPa | 0 mm | - | 551 W/m² | - |
| 1778185071 | 12.78° C | 40% | 1012.1 hPa | 0 mm | - | 124 W/m² | - |
| 1778184767 | 13.33° C | 40% | 1011.9 hPa | 0 mm | - | 101 W/m² | - |
| 1778184464 | 13.33° C | 40% | 1012 hPa | 0 mm | - | 89 W/m² | - |
| 1778184160 | 13.33° C | 40% | 1012 hPa | 0 mm | - | 122 W/m² | - |
| 1778183856 | 13.33° C | 39% | 1012.4 hPa | 0 mm | - | 159 W/m² | - |
| 1778183554 | 13.33° C | 39% | 1012.2 hPa | 0 mm | - | 401 W/m² | - |
| 1778183251 | 13.33° C | 39% | 1012.4 hPa | 0 mm | - | 127 W/m² | - |
| 1778182947 | 12.78° C | 40% | 1012.5 hPa | 0 mm | - | 117 W/m² | - |
| 1778182643 | 12.78° C | 40% | 1012.5 hPa | 0 mm | - | 109 W/m² | - |
| 1778182340 | 13.33° C | 40% | 1012.7 hPa | 0 mm | - | 132 W/m² | - |
| 1778182037 | 13.89° C | 40% | 1012.3 hPa | 0 mm | - | 131 W/m² | - |
| 1778181734 | 14.44° C | 40% | 1012.6 hPa | 0 mm | - | 349 W/m² | - |
| 1778181429 | 15° C | 40% | 1012.5 hPa | 0 mm | - | 276 W/m² | - |
| 1778181127 | 13.89° C | 39% | 1012.5 hPa | 0 mm | - | 230 W/m² | - |
* Rain latest hour (hover to see other rain measurements)
** Current wind speed in m/s (hover to see current wind gust speed)